Location: Newark
(43.4545°N, 5.8521°W)
Time: 21:44:20
(UTC+00:00)

ISS - Pass Details

Date: 26 November 2019
Orbit: 411 x 421 km, 51.6° (Epoch: 13 December)

Event Time Altitude Azimuth Distance (km) Brightness Sun altitude
Rises 17:20:21 0° 231° (SW) 2,342 1.9 -5.7°
Reaches altitude 10° 17:22:26 10° 230° (SW) 1,484 0.5 -6.0°
Maximum altitude 17:25:45 73° 146° (SE) 439 -3.7 -6.6°
Drops below altitude 10° 17:29:06 10° 61° (ENE) 1,499 -1.6 -7.1°
Enters shadow 17:29:15 - 60° (ENE) 1,558 -1.5 -7.1°
